Anderson, SC

4:43 PM EDT on September 25, 2016 (GMT -0400)
Anderson Regional

Weather History for KAND - March, 2014

Change the Weather History Date:

Sunday, March 2, 2014

  Actual Average Record
Temperature  
Mean Temperature 58 °F -  
Max Temperature 73 °F 63 °F 82 °F (1951)
Min Temperature 43 °F 38 °F 18 °F (1980)
Degree Days  
Heating Degree Days 7    
Growing Degree Days 8 (Base 50)    
Moisture  
Dew Point 42 °F    
Average Humidity 58    
Maximum Humidity 89    
Minimum Humidity 35    
Precipitation  
Precipitation 0.00 in - - ()
Sea Level Pressure  
Sea Level Pressure 30.10 in    
Wind  
Wind Speed 5 mph (SW)    
Max Wind Speed 17 mph    
Max Gust Speed 25 mph    
Visibility 10 miles    
Events      
Averages and records for this station are not official NWS values.
T = Trace of Precipitation, MM = Missing Value Source: NWS Daily Summary

Daily Weather History Graph

Daily Weather History Graph

Search for Another Location

Airport or City:

Trip Planner

Search our weather history database for the weather conditions in past years. The results will help you decide how hot, cold, wet, or windy it might be!

Date:

Astronomy

Mar. 02, 2014 Rise Set
Actual Time 6:58 AM EST 6:27 PM EST
Civil Twilight 6:33 AM EST 6:53 PM EST
Nautical Twilight 6:04 AM EST 7:22 PM EST
Astronomical Twilight 5:35 AM EST 7:51 PM EST
Moon 7:34 AM EST (3/2) 8:16 PM EST (3/2)
Length of Visible Light 12h 19m
Length of Day
11h 29m
Waxing Crescent, 3% of the Moon is Illuminated
Mar 2
Waxing Crescent
Mar 8
First Quarter
Mar 16
Full
Mar 23
Last Quarter
Mar 30
New

Hourly Weather History & Observations

Time (EST) Temp. Dew Point Humidity Pressure Visibility Wind Dir Wind Speed Gust Speed Precip Events Conditions
12:56 AM 48.0 °F 39.9 °F 74% 30.20 in 10.0 mi Calm Calm - N/A   Overcast
1:56 AM 48.9 °F 39.9 °F 71% 30.21 in 10.0 mi Calm Calm - N/A   Overcast
2:56 AM 48.9 °F 39.9 °F 71% 30.19 in 10.0 mi Calm Calm - N/A   Overcast
3:56 AM 46.9 °F 41.0 °F 80% 30.19 in 10.0 mi Variable 4.6 mph - N/A   Overcast
4:56 AM 46.0 °F 39.9 °F 79% 30.19 in 10.0 mi Calm Calm - N/A   Overcast
5:56 AM 44.1 °F 39.9 °F 85% 30.19 in 10.0 mi Calm Calm - N/A   Overcast
6:56 AM 43.0 °F 39.0 °F 86% 30.21 in 10.0 mi Calm Calm - N/A   Clear
7:56 AM 44.1 °F 41.0 °F 89% 30.20 in 10.0 mi Calm Calm - N/A   Clear
8:56 AM 53.1 °F 39.9 °F 61% 30.20 in 10.0 mi SW 4.6 mph - N/A   Clear
9:56 AM 59.0 °F 37.0 °F 44% 30.20 in 10.0 mi SW 9.2 mph - N/A   Clear
10:56 AM 63.0 °F 37.0 °F 38% 30.17 in 10.0 mi SW 17.3 mph - N/A   Clear
11:56 AM 64.9 °F 37.9 °F 37% 30.15 in 10.0 mi SW 11.5 mph - N/A   Clear
12:56 PM 70.0 °F 41.0 °F 35% 30.11 in 10.0 mi SW 16.1 mph 25.3 mph N/A   Clear
1:56 PM 71.1 °F 43.0 °F 36% 30.08 in 10.0 mi SW 16.1 mph - N/A   Clear
2:56 PM 71.1 °F 43.0 °F 36% 30.05 in 10.0 mi WSW 15.0 mph - N/A   Clear
3:56 PM 73.0 °F 44.1 °F 35% 30.02 in 10.0 mi SW 15.0 mph 21.9 mph N/A   Clear
4:56 PM 72.0 °F 44.1 °F 37% 30.01 in 10.0 mi WSW 13.8 mph - N/A   Clear
5:56 PM 70.0 °F 45.0 °F 41% 29.99 in 10.0 mi SW 9.2 mph - N/A   Clear
6:56 PM 63.0 °F 45.0 °F 52% 29.99 in 10.0 mi SSW 6.9 mph - N/A   Clear
7:56 PM 62.1 °F 46.9 °F 58% 29.99 in 10.0 mi SSW 8.1 mph - N/A   Partly Cloudy
8:56 PM 60.1 °F 46.0 °F 60% 29.97 in 10.0 mi SSW 8.1 mph - N/A   Clear
9:56 PM 60.1 °F 46.9 °F 62% 29.96 in 10.0 mi SSW 9.2 mph - N/A   Partly Cloudy
10:56 PM 60.1 °F 46.0 °F 60% 29.96 in 10.0 mi SSW 10.4 mph - N/A   Clear
11:56 PM 57.9 °F 46.0 °F 65% 29.92 in 10.0 mi South 8.1 mph - N/A   Clear